FENGYUN1
1 25730U 99025A   06025.60057086  .00000131  00000-0  94706-4 0 06371
2 25730 098.6177 023.5998 0014338 184.1392 175.9652 14.11807171345895
OKEAN-0
1 25860U 99039A   06025.65992159  .00000079  00000-0  19434-4 0 06527
2 25860 097.7424 046.5774 0000705 113.6151 246.5124 14.73332982350766
NOAA-16
1 26536U 00055A   06026.45702611  .00000257  00000-0  16422-3 0  7240
2 26536 099.0471 351.5533 0010951 155.7193 204.4515 14.12310808275571
NOAA-17
1 27453U 02032A   06026.14316138  .00000120  00000-0  71292-4 0  7478
2 27453 098.6382 101.0284 0012520 126.4340 233.7994 14.23745290186565
NOAA-18
1 28654U 05018A   06026.16648376  .00000136  00000-0  10005-3 0  3379
2 28654 098.7729 332.5991 0013545 264.5865 095.3760 14.10925691 35359
HUBBLE
1 20580U 90037B   06025.97526583  .00000482  00000-0  24833-4 0 05345
2 20580 028.4691 256.9043 0003694 119.0770 241.0188 14.99952975663721
UARS
1 21701U 91063B   06025.89669387  .00005989  00000-0  12356-3 0 06739
2 21701 056.9824 344.9388 0102873 298.1860 060.8801 15.41940919787346
PO-34
1 25520U 98064B   06025.88470004  .00000644  00000-0  22317-4 0 03891
2 25520 028.4599 263.0604 0005738 130.1274 229.9818 15.16594440400423
ISS
1 25544U 98067A   06026.82238319  .00011052  00000-0  79201-4 0  2265
2 25544 051.6428 194.4318 0009617 199.1790 300.1870 15.74251821410883
OO-38
1 26063U 00004C   06025.78222558  .00000015  00000-0  25192-4 0  5291
2 26063 100.1899 291.1952 0037098 147.9206 212.4261 14.35751232314236
NO-45
1 26932U 01043D   06025.42767939 -.00000125  00000-0 -16639-4 0  2262
2 26932 067.0581 015.0724 0006293 287.8621 072.1809 14.29512916225561
UWE-1
1 28892U 05043C   06026.67781990  .00000167  00000-0  45154-4 0  3173
2 28892 098.1796 287.0710 0016450 252.4151 107.5259 14.59296420 13333
XI-V
1 28895U 05043F   06026.67431061  .00000163  00000-0  44349-4 0  2997
2 28895 098.1826 287.0990 0016964 252.0090 107.9267 14.59352304 13212
NCUBE2
1 28897U 05043H   06026.25513338  .00000152  00000-0  41852-4 0   207
2 28897 098.1770 286.6858 0016138 256.4687 103.4729 14.59505541  5424
